| time (UTC) | temp F | wind direction | speed MPH | gust MPH | rain 1hr in | rain 24hr in | rain mn in | humidity % | barometer mb |
| 20260508182121 | 87 | 360 | 4.0 | 10.0 | 0.00 | 0.00 | 0.00 | 17 | 1011.0 |
| 20260508181121 | 86 | 1 | 5.0 | 11.0 | 0.00 | 0.00 | 0.00 | 18 | 1011.2 |
| 20260508180121 | 87 | 1 | 5.0 | 9.0 | 0.00 | 0.00 | 0.00 | 18 | 1011.3 |
| 20260508175121 | 86 | 2 | 5.0 | 9.0 | 0.00 | 0.00 | 0.00 | 18 | 1011.3 |
| 20260508174121 | 85 | 358 | 6.0 | 12.0 | 0.00 | 0.00 | 0.00 | 19 | 1011.5 |
| 20260508173121 | 85 | 25 | 1.0 | 5.0 | 0.00 | 0.00 | 0.00 | 19 | 1011.6 |
| 20260508172143 | 85 | 1 | 7.0 | 10.0 | 0.00 | 0.00 | 0.00 | 19 | 1011.6 |
| 20260508171121 | 85 | 0 | 6.0 | 10.0 | 0.00 | 0.00 | 0.00 | 19 | 1011.8 |
| 20260508170121 | 84 | 1 | 7.0 | 11.0 | 0.00 | 0.00 | 0.00 | 20 | 1011.8 |
| 20260508165121 | 85 | 3 | 5.0 | 10.0 | 0.00 | 0.00 | 0.00 | 19 | 1011.7 |
| 20260508164121 | 84 | 1 | 7.0 | 12.0 | 0.00 | 0.00 | 0.00 | 20 | 1011.8 |
| 20260508163121 | 84 | 8 | 5.0 | 9.0 | 0.00 | 0.00 | 0.00 | 20 | 1011.9 |
| 20260508162121 | 83 | 4 | 8.0 | 13.0 | 0.00 | 0.00 | 0.00 | 20 | 1011.9 |
| 20260508161129 | 83 | 2 | 6.0 | 10.0 | 0.00 | 0.00 | 0.00 | 21 | 1011.8 |
| 20260508160121 | 82 | 5 | 6.0 | 15.0 | 0.00 | 0.00 | 0.00 | 21 | 1011.8 |
| 20260508155121 | 82 | 5 | 6.0 | 9.0 | 0.00 | 0.00 | 0.00 | 22 | 1011.8 |
| 20260508154121 | 80 | 1 | 8.0 | 12.0 | 0.00 | 0.00 | 0.00 | 23 | 1012.0 |
| 20260508153142 | 80 | 2 | 6.0 | 11.0 | 0.00 | 0.00 | 0.00 | 23 | 1012.1 |
| 20260508152121 | 79 | 3 | 6.0 | 11.0 | 0.00 | 0.00 | 0.00 | 24 | 1012.1 |
| 20260508151121 | 79 | 4 | 6.0 | 10.0 | 0.00 | 0.00 | 0.00 | 24 | 1012.1 |
| 20260508150121 | 78 | 5 | 5.0 | 11.0 | 0.00 | 0.00 | 0.00 | 24 | 1012.1 |
| 20260508145121 | 77 | 5 | 5.0 | 10.0 | 0.00 | 0.00 | 0.00 | 25 | 1012.0 |
| 20260508144142 | 77 | 6 | 6.0 | 10.0 | 0.00 | 0.00 | 0.00 | 26 | 1012.2 |
| 20260508143121 | 76 | 4 | 5.0 | 10.0 | 0.00 | 0.00 | 0.00 | 26 | 1012.2 |
| 20260508142121 | 76 | 6 | 6.0 | 10.0 | 0.00 | 0.00 | 0.00 | 27 | 1012.0 |
| 20260508141143 | 75 | 3 | 2.0 | 4.0 | 0.00 | 0.00 | 0.00 | 28 | 1012.0 |
| 20260508140121 | 74 | 3 | 1.0 | 3.0 | 0.00 | 0.00 | 0.00 | 28 | 1012.1 |
| 20260508135121 | 74 | 37 | 2.0 | 4.0 | 0.00 | 0.00 | 0.00 | 29 | 1011.9 |
| 20260508134121 | 73 | 5 | 2.0 | 3.0 | 0.00 | 0.00 | 0.00 | 30 | 1011.7 |
| 20260508133121 | 72 | 4 | 2.0 | 4.0 | 0.00 | 0.00 | 0.00 | 30 | 1011.5 |
| 20260508132142 | 71 | 360 | 3.0 | 4.0 | 0.00 | 0.00 | 0.00 | 31 | 1011.4 |
| 20260508131121 | 69 | 8 | 4.0 | 5.0 | 0.00 | 0.00 | 0.00 | 32 | 1011.2 |
| 20260508130121 | 67 | 10 | 4.0 | 5.0 | 0.00 | 0.00 | 0.00 | 33 | 1011.0 |
| 20260508125142 | 67 | 25 | 3.0 | 4.0 | 0.00 | 0.00 | 0.00 | 34 | 1011.0 |
| 20260508124142 | 66 | 26 | 4.0 | 6.0 | 0.00 | 0.00 | 0.00 | 35 | 1010.9 |
| 20260508123121 | 64 | 6 | 4.0 | 6.0 | 0.00 | 0.00 | 0.00 | 36 | 1010.7 |
| 20260508122121 | 64 | 3 | 2.0 | 4.0 | 0.00 | 0.00 | 0.00 | 36 | 1010.7 |
| 20260508121121 | 65 | 35 | 2.0 | 3.0 | 0.00 | 0.00 | 0.00 | 35 | 1010.6 |
| 20260508120121 | 67 | 66 | 2.0 | 4.0 | 0.00 | 0.00 | 0.00 | 33 | 1010.6 |
| 20260508115121 | 67 | 360 | 2.0 | 4.0 | 0.00 | 0.00 | 0.00 | 33 | 1010.6 |
| 20260508114121 | 69 | 360 | 2.0 | 4.0 | 0.00 | 0.00 | 0.00 | 31 | 1010.5 |
| 20260508113142 | 67 | 37 | 3.0 | 4.0 | 0.00 | 0.00 | 0.00 | 33 | 1010.4 |
| 20260508112121 | 66 | 48 | 4.0 | 4.0 | 0.00 | 0.00 | 0.00 | 34 | 1010.5 |
| 20260508111121 | 65 | 2 | 3.0 | 4.0 | 0.00 | 0.00 | 0.00 | 35 | 1010.4 |
| 20260508110121 | 64 | 15 | 3.0 | 5.0 | 0.00 | 0.00 | 0.00 | 34 | 1010.3 |
| 20260508105121 | 65 | 360 | 3.0 | 3.0 | 0.00 | 0.00 | 0.00 | 34 | 1010.3 |
| 20260508104121 | 66 | 360 | 3.0 | 4.0 | 0.00 | 0.00 | 0.00 | 34 | 1010.3 |
| 20260508103122 | 65 | 96 | 3.0 | 4.0 | 0.00 | 0.00 | 0.00 | 35 | 1010.3 |
| 20260508102122 | 66 | 86 | 2.0 | 3.0 | 0.00 | 0.00 | 0.00 | 33 | 1010.3 |
| 20260508101121 | 66 | 2 | 3.0 | 4.0 | 0.00 | 0.00 | 0.00 | 32 | 1010.2 |
| 20260508100121 | 67 | 6 | 3.0 | 4.0 | 0.00 | 0.00 | 0.00 | 32 | 1010.1 |
| 20260508095142 | 67 | 4 | 3.0 | 4.0 | 0.00 | 0.00 | 0.00 | 32 | 1009.9 |
| 20260508094142 | 69 | 0 | 3.0 | 3.0 | 0.00 | 0.00 | 0.00 | 31 | 1010.1 |
| 20260508093143 | 69 | 12 | 3.0 | 5.0 | 0.00 | 0.00 | 0.00 | 31 | 1010.1 |
| 20260508092121 | 70 | 6 | 2.0 | 6.0 | 0.00 | 0.00 | 0.00 | 30 | 1010.2 |
| 20260508091121 | 72 | 360 | 2.0 | 4.0 | 0.00 | 0.00 | 0.00 | 28 | 1010.4 |
| 20260508090121 | 73 | 8 | 3.0 | 5.0 | 0.00 | 0.00 | 0.00 | 28 | 1010.3 |
| 20260508085121 | 72 | 1 | 3.0 | 5.0 | 0.00 | 0.00 | 0.00 | 27 | 1010.3 |
| 20260508084142 | 72 | 13 | 3.0 | 5.0 | 0.00 | 0.00 | 0.00 | 26 | 1010.4 |
| 20260508083121 | 72 | 17 | 2.0 | 4.0 | 0.00 | 0.00 | 0.00 | 25 | 1010.4 |
| 20260508082122 | 73 | 1 | 3.0 | 5.0 | 0.00 | 0.00 | 0.00 | 25 | 1010.5 |
| 20260508081121 | 73 | 4 | 2.0 | 5.0 | 0.00 | 0.00 | 0.00 | 22 | 1010.5 |
| 20260508080121 | 74 | 3 | 2.0 | 6.0 | 0.00 | 0.00 | 0.00 | 20 | 1010.7 |
| 20260508075121 | 74 | 13 | 6.0 | 11.0 | 0.00 | 0.00 | 0.00 | 19 | 1010.5 |
| 20260508074143 | 73 | 10 | 6.0 | 10.0 | 0.00 | 0.00 | 0.00 | 18 | 1010.6 |
| 20260508073121 | 73 | 12 | 4.0 | 8.0 | 0.00 | 0.00 | 0.00 | 18 | 1010.5 |
| 20260508072121 | 71 | 12 | 3.0 | 5.0 | 0.00 | 0.00 | 0.00 | 18 | 1010.4 |
| 20260508071122 | 69 | 360 | 2.0 | 3.0 | 0.00 | 0.00 | 0.00 | 19 | 1010.2 |
| 20260508070142 | 69 | 360 | 3.0 | 4.0 | 0.00 | 0.00 | 0.00 | 19 | 1010.2 |
| 20260508065121 | 69 | 2 | 3.0 | 4.0 | 0.00 | 0.00 | 0.00 | 19 | 1010.3 |
| 20260508064122 | 69 | 37 | 3.0 | 4.0 | 0.00 | 0.00 | 0.00 | 19 | 1010.3 |
| 20260508063121 | 69 | 24 | 3.0 | 4.0 | 0.00 | 0.00 | 0.00 | 19 | 1010.4 |
| 20260508062121 | 69 | 16 | 2.0 | 3.0 | 0.00 | 0.00 | 0.00 | 20 | 1010.3 |
| 20260508061122 | 71 | 3 | 2.0 | 4.0 | 0.00 | 0.00 | 0.00 | 19 | 1010.3 |
| 20260508060121 | 71 | 28 | 3.0 | 4.0 | 0.00 | 0.00 | 0.00 | 19 | 1010.3 |
| 20260508055121 | 72 | 30 | 2.0 | 3.0 | 0.00 | 0.00 | 0.00 | 19 | 1010.1 |
| 20260508054122 | 72 | 25 | 3.0 | 4.0 | 0.00 | 0.00 | 0.00 | 19 | 1010.1 |
| 20260508053121 | 72 | 360 | 3.0 | 4.0 | 0.00 | 0.00 | 0.00 | 20 | 1010.0 |
| 20260508052121 | 72 | 360 | 2.0 | 3.0 | 0.00 | 0.00 | 0.00 | 18 | 1010.0 |
| 20260508051142 | 74 | 360 | 0.0 | 1.0 | 0.00 | 0.00 | 0.00 | 18 | 1010.0 |
| 20260508050122 | 77 | 293 | 1.0 | 2.0 | 0.00 | 0.00 | 0.00 | 16 | 1010.0 |
| 20260508045122 | 77 | 356 | 2.0 | 5.0 | 0.00 | 0.00 | 0.00 | 16 | 1010.0 |
| 20260508044121 | 77 | 335 | 3.0 | 5.0 | 0.00 | 0.00 | 0.00 | 16 | 1009.8 |
| 20260508043121 | 76 | 338 | 3.0 | 4.0 | 0.00 | 0.00 | 0.00 | 16 | 1009.6 |
| 20260508042121 | 77 | 349 | 1.0 | 2.0 | 0.00 | 0.00 | 0.00 | 15 | 1009.5 |
| 20260508041121 | 79 | 347 | 2.0 | 3.0 | 0.00 | 0.00 | 0.00 | 14 | 1009.6 |
| 20260508040122 | 79 | 329 | 2.0 | 3.0 | 0.00 | 0.00 | 0.00 | 14 | 1009.5 |
| 20260508035142 | 80 | 334 | 2.0 | 4.0 | 0.00 | 0.00 | 0.00 | 14 | 1009.3 |
| 20260508034142 | 81 | 335 | 2.0 | 4.0 | 0.00 | 0.00 | 0.00 | 13 | 1009.1 |
| 20260508033122 | 82 | 352 | 3.0 | 5.0 | 0.00 | 0.00 | 0.00 | 13 | 1009.1 |
| 20260508032121 | 83 | 357 | 3.0 | 4.0 | 0.00 | 0.00 | 0.00 | 12 | 1008.9 |
| 20260508031122 | 85 | 360 | 4.0 | 6.0 | 0.00 | 0.00 | 0.00 | 11 | 1008.7 |
| 20260508030122 | 86 | 356 | 4.0 | 6.0 | 0.00 | 0.00 | 0.00 | 11 | 1008.6 |
| 20260508025143 | 86 | 359 | 4.0 | 5.0 | 0.00 | 0.00 | 0.00 | 11 | 1008.4 |
| 20260508024121 | 87 | 357 | 3.0 | 8.0 | 0.00 | 0.00 | 0.00 | 10 | 1008.4 |
| 20260508023122 | 87 | 355 | 5.0 | 9.0 | 0.00 | 0.00 | 0.00 | 10 | 1008.2 |
| 20260508022121 | 88 | 359 | 5.0 | 9.0 | 0.00 | 0.00 | 0.00 | 9 | 1008.1 |
| 20260508021142 | 88 | 360 | 7.0 | 12.0 | 0.00 | 0.00 | 0.00 | 9 | 1007.9 |
| 20260508020121 | 89 | 360 | 7.0 | 13.0 | 0.00 | 0.00 | 0.00 | 8 | 1008.0 |
| 20260508015123 | 90 | 358 | 7.0 | 12.0 | 0.00 | 0.00 | 0.00 | 8 | 1007.9 |
| 20260508014121 | 90 | 358 | 7.0 | 11.0 | 0.00 | 0.00 | 0.00 | 8 | 1007.8 |
| 20260508013122 | 90 | 359 | 5.0 | 11.0 | 0.00 | 0.00 | 0.00 | 7 | 1007.7 |
| 20260508012121 | 91 | 359 | 8.0 | 12.0 | 0.00 | 0.00 | 0.00 | 7 | 1007.7 |
| 20260508011122 | 91 | 360 | 7.0 | 12.0 | 0.00 | 0.00 | 0.00 | 7 | 1007.6 |
| 20260508010122 | 92 | 359 | 10.0 | 14.0 | 0.00 | 0.00 | 0.00 | 7 | 1007.6 |
| 20260508005143 | 92 | 359 | 6.0 | 12.0 | 0.00 | 0.00 | 0.00 | 6 | 1007.6 |
| 20260508004121 | 92 | 358 | 5.0 | 9.0 | 0.00 | 0.00 | 0.00 | 6 | 1007.6 |
| 20260508003143 | 92 | 358 | 4.0 | 11.0 | 0.00 | 0.00 | 0.00 | 6 | 1007.5 |
| 20260508002122 | 92 | 350 | 6.0 | 15.0 | 0.00 | 0.00 | 0.00 | 6 | 1007.6 |
| 20260508001122 | 91 | 358 | 4.0 | 8.0 | 0.00 | 0.00 | 0.00 | 6 | 1007.6 |
| 20260508000121 | 92 | 358 | 3.0 | 11.0 | 0.00 | 0.00 | 0.00 | 6 | 1007.6 |
| 20260507235122 | 92 | 356 | 5.0 | 10.0 | 0.00 | 0.00 | 0.00 | 6 | 1007.7 |
| 20260507234143 | 91 | 359 | 3.0 | 6.0 | 0.00 | 0.00 | 0.00 | 6 | 1007.6 |
| 20260507233122 | 92 | 360 | 8.0 | 12.0 | 0.00 | 0.00 | 0.00 | 7 | 1007.9 |
| 20260507232121 | 92 | 359 | 7.0 | 11.0 | 0.00 | 0.00 | 0.00 | 7 | 1008.1 |
| 20260507231122 | 93 | 358 | 6.0 | 15.0 | 0.00 | 0.00 | 0.00 | 7 | 1008.2 |
| 20260507230122 | 92 | 354 | 7.0 | 13.0 | 0.00 | 0.00 | 0.00 | 7 | 1008.3 |
| 20260507225142 | 92 | 360 | 10.0 | 15.0 | 0.00 | 0.00 | 0.00 | 8 | 1008.2 |
| 20260507224143 | 92 | 359 | 7.0 | 12.0 | 0.00 | 0.00 | 0.00 | 7 | 1008.3 |
| 20260507223143 | 93 | 356 | 6.0 | 13.0 | 0.00 | 0.00 | 0.00 | 7 | 1008.4 |
| 20260507222122 | 92 | 357 | 9.0 | 19.0 | 0.00 | 0.00 | 0.00 | 8 | 1008.3 |
| 20260507221143 | 92 | 359 | 6.0 | 15.0 | 0.00 | 0.00 | 0.00 | 8 | 1008.4 |
| 20260507220143 | 92 | 0 | 8.0 | 18.0 | 0.00 | 0.00 | 0.00 | 8 | 1008.6 |
| 20260507215121 | 92 | 3 | 7.0 | 14.0 | 0.00 | 0.00 | 0.00 | 8 | 1009.0 |
| 20260507214123 | 92 | 11 | 3.0 | 8.0 | 0.00 | 0.00 | 0.00 | 8 | 1009.0 |
| 20260507213122 | 91 | 358 | 8.0 | 13.0 | 0.00 | 0.00 | 0.00 | 8 | 1009.3 |
| 20260507212122 | 92 | 356 | 7.0 | 10.0 | 0.00 | 0.00 | 0.00 | 9 | 1009.1 |
| 20260507211122 | 92 | 357 | 6.0 | 15.0 | 0.00 | 0.00 | 0.00 | 9 | 1009.5 |
| 20260507210123 | 91 | 355 | 7.0 | 13.0 | 0.00 | 0.00 | 0.00 | 9 | 1009.6 |
| 20260507205122 | 91 | 357 | 7.0 | 14.0 | 0.00 | 0.00 | 0.00 | 8 | 1009.7 |
| 20260507204122 | 92 | 353 | 5.0 | 10.0 | 0.00 | 0.00 | 0.00 | 8 | 1009.9 |
| 20260507203122 | 91 | 2 | 5.0 | 10.0 | 0.00 | 0.00 | 0.00 | 8 | 1009.9 |
| 20260507202122 | 92 | 359 | 5.0 | 8.0 | 0.00 | 0.00 | 0.00 | 9 | 1010.0 |
| 20260507201122 | 91 | 359 | 6.0 | 11.0 | 0.00 | 0.00 | 0.00 | 9 | 1010.3 |
| 20260507200122 | 92 | 355 | 4.0 | 9.0 | 0.00 | 0.00 | 0.00 | 8 | 1010.4 |
| 20260507195122 | 91 | 360 | 4.0 | 9.0 | 0.00 | 0.00 | 0.00 | 8 | 1010.6 |
| 20260507194122 | 90 | 360 | 9.0 | 19.0 | 0.00 | 0.00 | 0.00 | 8 | 1010.6 |
| 20260507193122 | 90 | 360 | 3.0 | 9.0 | 0.00 | 0.00 | 0.00 | 8 | 1010.8 |
| 20260507192122 | 90 | 359 | 8.0 | 10.0 | 0.00 | 0.00 | 0.00 | 8 | 1011.2 |
| 20260507191143 | 89 | 353 | 5.0 | 15.0 | 0.00 | 0.00 | 0.00 | 10 | 1011.3 |
| 20260507190122 | 89 | 357 | 6.0 | 11.0 | 0.00 | 0.00 | 0.00 | 11 | 1011.5 |
| 20260507185122 | 87 | 356 | 7.0 | 12.0 | 0.00 | 0.00 | 0.00 | 12 | 1011.6 |
| 20260507184122 | 88 | 355 | 6.0 | 12.0 | 0.00 | 0.00 | 0.00 | 12 | 1011.8 |
| 20260507183122 | 87 | 1 | 3.0 | 9.0 | 0.00 | 0.00 | 0.00 | 12 | 1011.9 |